GW5620 Weather Reports


time (UTC)temp
C
wind
direction
speed
KPH
gust
KPH
rain 1hr
cm
rain 24hr
cm
rain mn
cm
humidity
%
barometer
mb
20260506145507 16 238 1.6 12.9 0.18 0.64 0.64 91 1006.1
20260506145007 16 147 3.2 11.3 0.20 0.64 0.64 91 1006.0
20260506143506 15 175 3.2 4.8 0.33 0.64 0.64 91 1006.5
20260506143007 15 182 1.6 4.8 0.30 0.61 0.61 90 1006.7
20260506142507 15 183 3.2 8.0 0.33 0.61 0.61 90 1006.8
20260506142006 15 232 0.0 11.3 0.30 0.58 0.58 90 1007.0
20260506141507 15 197 1.6 14.5 0.30 0.58 0.58 89 1007.2
20260506141007 15 199 1.6 11.3 0.25 0.53 0.53 89 1007.2
20260506140506 15 237 0.0 11.3 0.25 0.51 0.51 89 1007.2
20260506140006 15 194 0.0 11.3 0.25 0.48 0.48 89 1007.0
20260506135507 15 221 0.0 0.0 0.25 0.46 0.46 89 1007.0
20260506135007 15 206 0.0 9.7 0.23 0.43 0.43 89 1006.6
20260506134506 15 198 0.0 9.7 0.18 0.36 0.36 89 1006.9
20260506133506 16 188 4.8 12.9 0.15 0.30 0.30 89 1006.6
20260506133006 15 217 3.2 12.9 0.15 0.30 0.30 89 1006.6
20260506132506 15 192 4.8 11.3 0.13 0.28 0.28 88 1006.7
20260506132007 15 206 3.2 16.1 0.13 0.28 0.28 88 1006.7
20260506131007 15 217 4.8 11.3 0.13 0.28 0.28 87 1006.7
20260506130506 15 190 3.2 16.1 0.13 0.25 0.25 87 1006.7
20260506130006 15 197 6.4 24.1 0.10 0.23 0.23 86 1006.6
20260506125506 15 193 8.0 14.5 0.08 0.20 0.20 86 1006.7
20260506125006 16 190 4.8 12.9 0.08 0.20 0.20 86 1006.6
20260506124506 16 201 4.8 14.5 0.05 0.18 0.18 86 1006.5
20260506124006 16 179 1.6 12.9 0.08 0.18 0.18 85 1006.4
20260506123506 16 183 4.8 11.3 0.05 0.15 0.15 85 1006.5
20260506123006 16 176 6.4 14.5 0.05 0.15 0.15 85 1006.5
20260506122506 16 209 3.2 16.1 0.08 0.15 0.15 85 1006.5
20260506122006 16 180 4.8 16.1 0.08 0.15 0.15 85 1006.7
20260506121006 16 201 3.2 16.1 0.10 0.15 0.15 85 1006.8
20260506120506 16 214 3.2 14.5 0.10 0.13 0.13 84 1006.7
20260506120006 16 180 3.2 12.9 0.10 0.13 0.13 84 1006.8
20260506115507 16 213 0.0 3.2 0.10 0.13 0.13 83 1006.8
20260506115006 16 210 1.6 11.3 0.13 0.13 0.13 83 1006.8
20260506114506 16 171 1.6 9.7 0.13 0.13 0.13 83 1006.9
20260506113506 16 184 1.6 12.9 0.10 0.10 0.10 81 1007.1
20260506112506 16 221 0.0 4.8 0.08 0.08 0.08 80 1007.2
20260506111506 16 194 0.0 4.8 0.08 0.08 0.08 78 1007.1
20260506111006 16 184 0.0 8.0 0.05 0.05 0.05 77 1007.0
20260506110506 17 233 0.0 12.9 0.03 0.03 0.03 76 1006.9
20260506110006 17 206 1.6 8.0 0.03 0.03 0.03 75 1006.7
20260506105006 17 215 1.6 16.1 0.00 0.00 0.00 72 1006.5
20260506104006 17 203 3.2 22.5 0.00 0.00 0.00 69 1006.2
20260506103506 17 200 1.6 14.5 0.00 0.00 0.00 69 1006.2
20260506103006 17 250 3.2 14.5 0.00 0.00 0.00 68 1006.1
20260506102506 17 208 4.8 16.1 0.00 0.00 0.00 67 1006.0
20260506102006 18 201 1.6 14.5 0.00 0.00 0.00 66 1005.9
20260506101505 18 207 3.2 14.5 0.00 0.00 0.00 65 1005.8
20260506101006 18 187 3.2 16.1 0.00 0.00 0.00 64 1005.9
20260506100506 18 205 0.0 12.9 0.00 0.00 0.00 64 1005.9
20260506100006 18 215 3.2 14.5 0.00 0.00 0.00 63 1005.8
20260506095006 18 207 0.0 11.3 0.00 0.00 0.00 62 1005.8
20260506094006 18 172 0.0 4.8 0.00 0.00 0.00 62 1005.7
20260506093506 18 187 0.0 9.7 0.00 0.00 0.00 62 1005.7
20260506093006 18 225 1.6 16.1 0.00 0.00 0.00 62 1005.7
20260506092506 18 222 1.6 4.8 0.00 0.00 0.00 62 1005.7
20260506092006 18 194 1.6 14.5 0.00 0.00 0.00 62 1005.9
20260506091506 18 218 0.0 4.8 0.00 0.00 0.00 62 1005.8
20260506091006 18 204 0.0 4.8 0.00 0.00 0.00 61 1005.9
20260506090506 18 192 0.0 4.8 0.00 0.00 0.00 61 1005.9
20260506090006 18 182 0.0 4.8 0.00 0.00 0.00 61 1005.9
20260506085506 18 198 0.0 11.3 0.00 0.00 0.00 61 1006.0
20260506085006 18 214 0.0 8.0 0.00 0.00 0.00 60 1006.1
20260506084506 18 226 3.2 12.9 0.00 0.00 0.00 60 1006.1
20260506083506 18 192 3.2 11.3 0.00 0.00 0.00 60 1006.1
20260506083006 18 187 3.2 16.1 0.00 0.00 0.00 60 1006.2
20260506082505 18 195 3.2 19.3 0.00 0.00 0.00 60 1006.2
20260506082006 18 192 0.0 19.3 0.00 0.00 0.00 59 1006.3
20260506081506 18 214 1.6 14.5 0.00 0.00 0.00 59 1006.3
20260506081006 18 198 1.6 19.3 0.00 0.00 0.00 59 1006.3
20260506073506 18 198 1.6 12.9 0.00 0.00 0.00 57 1006.0
20260506073005 18 189 3.2 11.3 0.00 0.00 0.00 57 1006.0
20260506072506 18 194 1.6 14.5 0.00 0.00 0.00 56 1006.1
20260506072005 18 213 0.0 16.1 0.00 0.00 0.00 56 1006.2
20260506071505 19 185 3.2 14.5 0.00 0.00 0.00 56 1006.3
20260506071005 19 201 1.6 12.9 0.00 0.00 0.00 56 1006.4
20260506070505 19 184 1.6 16.1 0.00 0.00 0.00 55 1006.4
20260506062506 20 204 3.2 14.5 0.00 0.00 0.00 51 1006.8
20260506062005 20 188 1.6 9.7 0.00 0.00 0.00 51 1006.9
20260506061505 20 208 0.0 9.7 0.00 0.00 0.00 51 1007.0
20260506061005 20 181 0.0 4.8 0.00 0.00 0.00 50 1007.1
20260506060505 20 169 1.6 14.5 0.00 0.00 0.00 50 1007.1
20260506051005 20 209 1.6 14.5 0.00 0.00 0.00 47 1007.7
20260506050504 20 211 0.0 8.0 0.00 0.00 0.00 47 1007.8
20260506045005 20 185 0.0 12.9 0.00 0.00 0.00 47 1007.8
20260506044505 20 191 0.0 8.0 0.00 0.00 0.00 47 1007.8
20260506043505 20 189 1.6 8.0 0.00 0.00 0.00 46 1007.8
20260506043004 20 196 0.0 1.6 0.00 0.00 0.00 46 1007.8
20260506042504 20 208 1.6 4.8 0.00 0.00 0.00 45 1007.8
20260506042005 20 212 0.0 0.0 0.00 0.00 0.00 45 1007.7
20260506041505 20 185 0.0 8.0 0.00 0.00 0.00 45 1007.8
20260506041005 20 194 0.0 0.0 0.00 0.00 0.00 45 1007.7
20260506040505 20 194 0.0 0.0 0.00 0.00 0.00 45 1007.7
20260506040004 20 196 0.0 1.6 0.00 0.00 0.00 44 1007.7
20260506035005 20 188 0.0 3.2 0.00 0.00 0.00 44 1007.7
20260506034505 20 194 0.0 4.8 0.00 0.00 0.00 44 1007.7
20260506034005 20 175 0.0 4.8 0.00 0.00 0.00 44 1007.7
20260506033504 20 202 0.0 4.8 0.00 0.00 0.00 44 1007.6
20260506032004 20 190 0.0 4.8 0.00 0.00 0.00 43 1007.6
20260506031004 20 197 0.0 0.0 0.00 0.00 0.00 42 1007.5
20260506030505 20 197 0.0 3.2 0.00 0.00 0.00 41 1007.5
20260506030004 20 192 0.0 0.0 0.00 0.00 0.00 41 1007.6
20260506024505 21 182 0.0 0.0 0.00 0.00 0.00 40 1007.7
20260506024005 21 189 0.0 3.2 0.00 0.00 0.00 39 1007.6
20260506023005 21 185 0.0 0.0 0.00 0.00 0.00 39 1007.6
20260506022504 21 185 0.0 0.0 0.00 0.00 0.00 38 1007.6
20260506022004 21 207 0.0 1.6 0.00 0.00 0.00 38 1007.6
20260506021504 21 184 0.0 4.8 0.00 0.00 0.00 38 1007.6
20260506021004 21 231 0.0 8.0 0.00 0.00 0.00 37 1007.7
20260506020006 21 225 0.0 0.0 0.00 0.00 0.00 37 1007.6
20260506015505 21 224 0.0 0.0 0.00 0.00 0.00 37 1007.7
20260506015004 21 242 0.0 0.0 0.00 0.00 0.00 37 1007.7
20260506014504 21 244 0.0 0.0 0.00 0.00 0.00 37 1007.6
20260506014004 21 236 0.0 0.0 0.00 0.00 0.00 37 1007.5
20260506013504 21 190 0.0 0.0 0.00 0.00 0.00 37 1007.5
20260506012504 21 190 0.0 0.0 0.00 0.00 0.00 37 1007.4
20260506011504 21 195 0.0 0.0 0.00 0.00 0.00 37 1007.3
20260506011005 21 205 0.0 0.0 0.00 0.00 0.00 36 1007.2
20260506010504 22 176 0.0 0.0 0.00 0.00 0.00 36 1007.2
20260506010004 22 205 0.0 0.0 0.00 0.00 0.00 37 1007.1
20260506005004 22 205 0.0 0.0 0.00 0.00 0.00 37 1007.0
20260506004504 22 194 0.0 1.6 0.00 0.00 0.00 37 1007.0
20260506004004 22 196 0.0 1.6 0.00 0.00 0.00 38 1006.9
20260506003505 22 198 0.0 0.0 0.00 0.00 0.00 37 1006.8
20260506003004 22 221 0.0 0.0 0.00 0.00 0.00 38 1006.7
20260506002503 22 195 0.0 1.6 0.00 0.00 0.00 38 1006.6
20260506002004 22 193 0.0 0.0 0.00 0.00 0.00 37 1006.6
20260506001504 23 193 0.0 0.0 0.00 0.00 0.00 37 1006.5
20260506001005 23 201 0.0 8.0 0.00 0.00 0.00 37 1006.5
20260506000505 23 185 0.0 0.0 0.00 0.00 0.00 37 1006.5
20260505235504 23 186 0.0 4.8 0.00 0.00 0.00 37 1006.4
20260505234504 23 189 1.6 9.7 0.00 0.00 0.00 36 1006.3
20260505234009 23 201 0.0 4.8 0.00 0.00 0.00 36 1006.3
20260505233509 24 180 1.6 9.7 0.00 0.00 0.00 36 1006.3
20260505233008 24 219 1.6 8.0 0.00 0.00 0.00 36 1006.4
20260505232508 24 191 3.2 29.0 0.00 0.00 0.00 36 1006.4
20260505232008 24 189 0.0 8.0 0.00 0.00 0.00 36 1006.3
20260505231509 24 190 4.8 14.5 0.00 0.00 0.00 36 1006.2
20260505231008 24 226 3.2 12.9 0.00 0.00 0.00 36 1006.3
20260505230509 24 200 1.6 9.7 0.00 0.00 0.00 36 1006.2
20260505230009 25 197 1.6 12.9 0.00 0.00 0.00 36 1006.2
20260505225008 25 191 1.6 14.5 0.00 0.00 0.00 36 1006.2
20260505224508 25 248 1.6 14.5 0.00 0.00 0.00 36 1006.2
20260505223509 25 204 0.0 9.7 0.00 0.00 0.00 37 1006.1
20260505223009 25 202 1.6 12.9 0.00 0.00 0.00 36 1006.2
20260505222509 25 207 1.6 16.1 0.00 0.00 0.00 35 1006.2
20260505222008 25 193 1.6 16.1 0.00 0.00 0.00 35 1006.2
20260505221508 25 199 3.2 16.1 0.00 0.00 0.00 34 1006.2
20260505221008 25 194 3.2 20.9 0.00 0.00 0.00 34 1006.2
20260505220508 25 228 3.2 22.5 0.00 0.00 0.00 34 1006.3
20260505215508 26 215 4.8 19.3 0.00 0.00 0.00 34 1006.3
20260505215009 26 228 1.6 20.9 0.00 0.00 0.00 35 1006.3
20260505214508 26 218 4.8 24.1 0.00 0.00 0.00 33 1006.2
20260505214009 26 212 3.2 25.7 0.00 0.00 0.00 29 1006.2
20260505213508 27 197 4.8 22.5 0.00 0.00 0.00 28 1006.2
20260505212508 27 216 3.2 22.5 0.00 0.00 0.00 31 1006.1
20260505212008 27 188 1.6 14.5 0.00 0.00 0.00 32 1006.0
20260505211508 27 216 8.0 22.5 0.00 0.00 0.00 30 1006.0
20260505211009 27 203 4.8 19.3 0.00 0.00 0.00 29 1006.0
20260505210509 27 224 3.2 16.1 0.00 0.00 0.00 31 1006.0
20260505210008 27 188 1.6 20.9 0.00 0.00 0.00 31 1006.0
20260505205509 27 205 4.8 14.5 0.00 0.00 0.00 30 1006.0
20260505205008 27 219 6.4 19.3 0.00 0.00 0.00 30 1006.1
20260505203509 27 189 4.8 32.2 0.00 0.00 0.00 30 1006.0
20260505203009 27 234 4.8 20.9 0.00 0.00 0.00 30 1006.1
20260505202508 27 119 0.0 8.0 0.00 0.00 0.00 31 1006.1
20260505202008 27 218 3.2 19.3 0.00 0.00 0.00 30 1006.1
20260505201508 27 239 8.0 24.1 0.00 0.00 0.00 30 1006.2
20260505200508 27 237 1.6 11.3 0.00 0.00 0.00 33 1006.2
20260505200008 27 243 3.2 19.3 0.00 0.00 0.00 35 1006.3
20260505195008 27 180 4.8 24.1 0.00 0.00 0.00 34 1006.4
20260505194508 27 191 3.2 19.3 0.00 0.00 0.00 36 1006.4
20260505194008 27 231 6.4 19.3 0.00 0.00 0.00 36 1006.4
20260505192508 27 219 6.4 22.5 0.00 0.00 0.00 33 1006.7
20260505192008 27 200 8.0 24.1 0.00 0.00 0.00 33 1006.8
20260505191508 27 201 3.2 19.3 0.00 0.00 0.00 35 1006.9
20260505191009 27 208 3.2 20.9 0.00 0.00 0.00 34 1006.9
20260505190008 27 239 3.2 19.3 0.00 0.00 0.00 36 1007.0
20260505185508 27 239 6.4 20.9 0.00 0.00 0.00 35 1007.1
20260505185008 27 204 8.0 25.7 0.00 0.00 0.00 36 1007.2
20260505184508 26 223 9.7 27.4 0.00 0.00 0.00 36 1007.2
20260505183508 27 178 4.8 20.9 0.00 0.00 0.00 34 1007.2
20260505183008 27 188 1.6 19.3 0.00 0.00 0.00 37 1007.4
20260505182508 27 228 6.4 19.3 0.00 0.00 0.00 35 1007.4
20260505182008 27 179 1.6 12.9 0.00 0.00 0.00 37 1007.4
20260505181507 27 209 3.2 19.3 0.00 0.00 0.00 36 1007.5
20260505180509 27 210 3.2 19.3 0.00 0.00 0.00 36 1007.5
20260505180008 27 225 8.0 22.5 0.00 0.00 0.00 35 1007.7
20260505175508 27 199 4.8 19.3 0.00 0.00 0.00 37 1007.7
20260505175008 27 226 8.0 29.0 0.00 0.00 0.00 36 1007.7
20260505174507 27 207 0.0 16.1 0.00 0.00 0.00 37 1007.7
20260505174007 27 211 6.4 19.3 0.00 0.00 0.00 37 1007.8
20260505173508 26 213 4.8 20.9 0.00 0.00 0.00 38 1007.8
20260505173008 26 245 4.8 27.4 0.00 0.00 0.00 37 1007.7
20260505172508 26 223 3.2 16.1 0.00 0.00 0.00 39 1007.7
20260505172008 26 187 4.8 24.1 0.00 0.00 0.00 37 1007.8
20260505171508 26 213 4.8 24.1 0.00 0.00 0.00 39 1007.9
20260505171008 26 216 4.8 27.4 0.00 0.00 0.00 40 1008.1
20260505170507 26 213 1.6 20.9 0.00 0.00 0.00 38 1008.1
20260505170007 26 239 4.8 20.9 0.00 0.00 0.00 39 1008.2
20260505165007 26 243 1.6 16.1 0.00 0.00 0.00 39 1008.3
20260505164008 26 239 1.6 9.7 0.00 0.00 0.00 39 1008.5
20260505163009 26 203 3.2 20.9 0.00 0.00 0.00 40 1008.6
20260505162507 26 211 1.6 19.3 0.00 0.00 0.00 40 1008.7
20260505162007 25 243 0.0 12.9 0.00 0.00 0.00 42 1008.8
20260505161507 25 241 8.0 24.1 0.00 0.00 0.00 40 1009.0
20260505160507 25 238 4.8 19.3 0.00 0.00 0.00 40 1009.1
20260505152507 24 238 1.6 22.5 0.00 0.00 0.00 44 1009.2
20260505152007 24 213 1.6 24.1 0.00 0.00 0.00 44 1009.2
20260505151507 24 237 9.7 24.1 0.00 0.00 0.00 42 1009.3